Location: Unspecified
(0.0000°N, 0.0000°E)
Time: 23:10:09
(UTC+00:00)

CZ-3B DEB - Visible Passes

Search period start: 02 December 2022 00:00
Search period end: 12 December 2022 00:00
Orbit: 1070 x 41502 km, 26.5° (Epoch: 29 November)

Date Brightness Start Highest point End Pass type
(mag) Time Alt. Az. Time Alt. Az. Time Alt. Az.
03 Dec ? 07:04:43 10° NW 18:16:35 59° SSE 19:15:56 13° E visible
04 Dec ? 08:34:53 10° NW 14:32:20 61° S 20:42:35 46° E visible
05 Dec ? 10:06:23 10° WNW 10:43:16 85° SW 22:09:13 83° SW visible
06 Dec ? 11:40:25 10° WNW 12:56:11 64° SW 23:35:52 37° W visible
07 Dec ? 13:20:28 10° W 14:47:44 40° WSW 19:42:05 10° WSW visible
08 Dec ? 15:23:43 10° W 16:25:42 17° WSW 18:14:07 10° WSW visible
10 Dec ? 04:23:00 10° N 04:26:05 12° NNE 04:30:31 10° NE visible
